Miscellaneous Local Product
Issued by NWS North Platte, NE

Home | Current Version | Previous Version | Text Only | Print | Product List | Glossary On
Versions: 1 2 3 4 5 6 7 8 9 10 11 12 13 14 15 16 17 18 19 20 21 22 23 24 25 26 27 28 29 30 31 32 33 34 35 36 37 38 39 40 41 42 43 44 45 46 47 48 49 50
000
AXUS43 KLBF 300810
MISLBF


WESTERN AND NORTH CENTRAL NEBRASKA HOURLY WEATHER ROUNDUP
NATIONAL WEATHER SERVICE NORTH PLATTE NE
300 AM CDT FRI SEP 30 2016

NOTE: "FAIR" INDICATES FEW OR NO CLOUDS BELOW 12,000 FEET WITH NO
SIGNIFICANT WEATHER AND/OR OBSTRUCTIONS TO VISIBILITY.

NOTE: STATIONS NOT REPORTING VARIABLES SUCH AS SKY/WEATHER OR
PRESSURE ARE PROVIDED BY RAWS AND APRS NETWORKS AND ARE NOT UNDER
NATIONAL WEATHER SERVICE QUALITY CONTROL.

...OBSERVATIONS IN AND NEAR THE EASTERN PANHANDLE OF NEBRASKA...

CITY           SKY/WX    TMP DP  RH WIND       PRES   REMARKS
PINE RIDGE     CLEAR     58  42  55 S23G35    30.18F
CHADRON        PTCLDY    60  40  47 SW8       30.17F
ALLIANCE       CLOUDY    50  40  68 SE10      30.23S
SIDNEY         CLOUDY    50  39  66 SE5       30.25S
CRESCENT LAKE    N/A     50  40  69 S8          N/A
$$

...OBSERVATIONS IN NORTHERN NEBRASKA AND FAR SOUTHERN SOUTH DAKOTA...

CITY           SKY/WX    TMP DP  RH WIND       PRES   REMARKS
WINNER         FAIR      53  44  71 S16       30.26F
VALENTINE      CLEAR     50  42  74 SE8       30.27F
THEDFORD       CLEAR     45  40  85 SE3       30.30S
AINSWORTH      CLEAR     48  44  87 S9        30.29F
O`NEILL        CLEAR     47  44  87 SE5       30.32F
ORD            CLEAR     40  36  86 CALM      30.31S FOG
BROKEN BOW     CLEAR     37  36  96 N3        30.31S
VALENTINE NWR    N/A     47  42  82 S6          N/A
BUTTE            N/A     47  44  89 SE8         N/A
HALSEY           N/A     46  41  82 SE5         N/A
EWING            N/A     45  42  91 CALM        N/A
$$

...OBSERVATIONS IN SOUTHWEST NEBRASKA AND FAR NORTHEAST COLORADO...

CITY           SKY/WX    TMP DP  RH WIND       PRES   REMARKS
HOLYOKE        FAIR      50  41  71 SE9       30.25F
IMPERIAL       CLEAR     47  41  80 SE7       30.28R
OGALLALA       CLEAR     51  43  73 SE6       30.27F
NORTH PLATTE   CLEAR     43  40  89 E6        30.29F
MCCOOK         CLEAR     47  43  86 E7        30.29F
LEXINGTON      CLEAR     44  41  91 CALM      30.31S
STAPLETON        N/A     44  41  88 CALM        N/A
GOTHENBURG       N/A     46  40  80 E3          N/A
CALLAWAY         N/A     45  42  91 S7          N/A
$$

...OBSERVATIONS IN CENTRAL LINCOLN COUNTY AREA...

CITY           SKY/WX    TMP DP  RH WIND       PRES   REMARKS
N.P. AIRPORT   CLEAR     43  40  89 E6        30.29F
N.P. DOWNTOWN    N/A     50  44  80 CALM        N/A
N.P. SOUTHEAST   N/A     50  43  78 SE3         N/A
N.P. HILLCREST   N/A     49  44  82 SE6         N/A
$$

...SOME OBSERVATIONS FROM AROUND THE REGION...

CITY           SKY/WX    TMP DP  RH WIND       PRES   REMARKS
DENVER         CLOUDY    59  39  47 W7        30.22S
LARAMIE        CLOUDY    50  44  80 SW6       30.34F
CHEYENNE       CLOUDY    52  43  71 CALM      30.26F
SCOTTSBLUFF    PTCLDY    52  41  66 E9        30.22F
RAPID CITY     PTCLDY    59  43  55 SE16      30.15F
BISMARCK       MOCLDY    51  46  83 SE10      30.22F
PIERRE         CLEAR     53  45  74 SE13      30.23S
SIOUX FALLS    CLEAR     46  44  93 NE5       30.36R
OMAHA          CLEAR     49  45  86 N6        30.31F
GRAND ISLAND   CLEAR     47  43  86 CALM      30.33S
KANSAS CITY    CLEAR     52  46  80 NE8       30.25F
WICHITA        PTCLDY    52  49  89 NW5       30.29S
OKLAHOMA CITY  PTCLDY    55  49  80 N6        30.26F
DALLAS         CLEAR     60  52  74 N8        30.20F
AMARILLO       CLEAR     52  43  71 S12       30.31S
DODGE CITY     CLEAR     50  45  83 S8        30.31R
HAYS           CLEAR     46  36  66 CALM      30.31S
GOODLAND       CLOUDY    47  39  74 S12       30.26S
$$




USA.gov is the U.S. government's official web portal to all federal, state and local government web resources and services.